Time,TemperatureF,DewpointF,PressureIn,WindDirection,WindDirectionDegrees,WindSpeedMPH,WindSpeedGustMPH,Humidity,HourlyPrecipIn,Conditions,Clouds,dailyrainin,SoftwareType,DateUTC
2013-11-26 00:02:00,45.3,44.8,29.94,NNW,348,1.0,10.0,98,0.12,,,0.32,meteohub,2013-11-26 06:02:00,
2013-11-26 00:07:00,45.3,44.8,29.93,NW,322,1.0,10.0,98,0.14,,,0.02,meteohub,2013-11-26 06:07:00,
2013-11-26 00:12:00,45.5,45.0,29.94,North,0,3.0,8.0,98,0.21,,,0.09,meteohub,2013-11-26 06:12:00,
2013-11-26 00:17:00,45.7,45.1,29.94,WNW,285,3.0,7.0,98,0.23,,,0.12,meteohub,2013-11-26 06:17:00,
2013-11-26 00:22:00,45.7,45.1,29.94,North,351,2.0,9.0,98,0.24,,,0.13,meteohub,2013-11-26 06:22:00,
2013-11-26 00:27:00,45.9,45.3,29.93,North,5,3.0,9.0,98,0.29,,,0.19,meteohub,2013-11-26 06:27:00,
2013-11-26 00:32:00,45.9,45.3,29.92,NNE,31,0.0,9.0,98,0.31,,,0.22,meteohub,2013-11-26 06:32:00,
2013-11-26 00:37:00,45.9,45.3,29.92,NNW,346,2.0,7.0,98,0.30,,,0.23,meteohub,2013-11-26 06:37:00,
2013-11-26 00:42:00,45.9,45.3,29.91,North,11,1.0,8.0,98,0.31,,,0.26,meteohub,2013-11-26 06:42:00,
2013-11-26 00:47:00,45.9,45.3,29.91,NNW,336,3.0,8.0,98,0.32,,,0.26,meteohub,2013-11-26 06:47:00,
2013-11-26 00:52:00,45.9,45.3,29.91,North,355,3.0,8.0,98,0.33,,,0.29,meteohub,2013-11-26 06:52:00,
2013-11-26 00:57:00,46.0,45.5,29.91,NE,36,3.0,15.0,98,0.33,,,0.30,meteohub,2013-11-26 06:57:00,
2013-11-26 01:02:00,46.0,45.5,29.91,NE,39,3.0,15.0,98,0.30,,,0.30,meteohub,2013-11-26 07:02:00,
2013-11-26 01:07:00,46.0,45.5,29.89,West,273,0.0,15.0,98,0.25,,,0.30,meteohub,2013-11-26 07:07:00,
2013-11-26 01:13:00,46.0,45.5,29.89,NNE,13,0.0,11.0,98,0.20,,,0.30,meteohub,2013-11-26 07:13:00,
2013-11-26 01:18:00,46.0,45.5,29.90,NW,308,2.0,11.0,98,0.18,,,0.30,meteohub,2013-11-26 07:18:00,
2013-11-26 01:23:00,46.0,45.5,29.90,East,79,0.0,9.0,98,0.14,,,0.31,meteohub,2013-11-26 07:23:00,
2013-11-26 01:28:00,46.0,45.5,29.89,NW,321,3.0,9.0,98,0.12,,,0.31,meteohub,2013-11-26 07:28:00,
2013-11-26 01:33:00,46.0,45.5,29.88,NNW,342,3.0,9.0,98,0.10,,,0.32,meteohub,2013-11-26 07:33:00,
2013-11-26 01:38:00,46.0,45.5,29.88,NE,40,2.0,9.0,98,0.11,,,0.35,meteohub,2013-11-26 07:38:00,
2013-11-26 01:43:00,46.2,45.7,29.88,NW,307,2.0,8.0,98,0.11,,,0.37,meteohub,2013-11-26 07:43:00,
2013-11-26 01:48:00,46.2,45.7,29.88,NNW,331,3.0,8.0,98,0.10,,,0.38,meteohub,2013-11-26 07:48:00,
2013-11-26 01:53:00,46.2,45.7,29.88,NNW,346,3.0,8.0,98,0.11,,,0.40,meteohub,2013-11-26 07:53:00,
2013-11-26 01:58:00,46.2,45.7,29.88,North,349,0.0,8.0,98,0.12,,,0.42,meteohub,2013-11-26 07:58:00,
2013-11-26 02:03:00,46.4,45.9,29.86,North,355,3.0,7.0,98,0.12,,,0.42,meteohub,2013-11-26 08:03:00,
2013-11-26 02:08:00,46.4,45.9,29.86,ENE,75,2.0,7.0,98,0.13,,,0.43,meteohub,2013-11-26 08:08:00,
2013-11-26 02:13:00,46.4,45.9,29.88,ENE,58,0.0,7.0,98,0.15,,,0.45,meteohub,2013-11-26 08:13:00,
2013-11-26 02:18:00,46.6,46.0,29.88,North,5,0.0,7.0,98,0.14,,,0.45,meteohub,2013-11-26 08:18:00,
2013-11-26 02:23:00,46.6,46.0,29.88,NE,53,0.0,6.0,98,0.15,,,0.46,meteohub,2013-11-26 08:23:00,
2013-11-26 02:28:00,46.6,46.0,29.87,NE,36,1.0,5.0,98,0.15,,,0.46,meteohub,2013-11-26 08:28:00,
2013-11-26 02:33:00,46.6,46.0,29.86,ENE,73,0.0,4.0,98,0.13,,,0.47,meteohub,2013-11-26 08:33:00,
2013-11-26 02:38:00,46.6,46.4,29.86,ENE,64,1.0,4.0,99,0.11,,,0.47,meteohub,2013-11-26 08:38:00,
2013-11-26 02:43:00,46.8,46.6,29.84,ENE,70,2.0,5.0,99,0.10,,,0.47,meteohub,2013-11-26 08:43:00,
2013-11-26 02:48:00,46.8,46.6,29.85,East,88,0.0,5.0,99,0.09,,,0.48,meteohub,2013-11-26 08:48:00,
2013-11-26 02:53:00,46.8,46.6,29.85,ENE,76,0.0,6.0,99,0.08,,,0.49,meteohub,2013-11-26 08:53:00,
2013-11-26 02:58:00,46.9,46.8,29.84,NE,53,0.0,6.0,99,0.07,,,0.49,meteohub,2013-11-26 08:58:00,
2013-11-26 03:03:00,46.9,46.4,29.83,NNE,13,1.0,6.0,98,0.06,,,0.49,meteohub,2013-11-26 09:03:00,
2013-11-26 03:08:00,46.9,46.4,29.83,ENE,70,3.0,7.0,98,0.05,,,0.49,meteohub,2013-11-26 09:08:00,
2013-11-26 03:13:00,46.9,46.4,29.83,ENE,62,2.0,7.0,98,0.04,,,0.49,meteohub,2013-11-26 09:13:00,
2013-11-26 03:18:00,46.9,46.4,29.82,ENE,64,1.0,8.0,98,0.04,,,0.50,meteohub,2013-11-26 09:18:00,
2013-11-26 03:23:00,47.1,46.6,29.81,ENE,64,0.0,8.0,98,0.04,,,0.50,meteohub,2013-11-26 09:23:00,
2013-11-26 03:28:00,47.1,46.6,29.81,NE,54,1.0,8.0,98,0.04,,,0.50,meteohub,2013-11-26 09:28:00,
2013-11-26 03:33:00,47.1,46.6,29.82,North,0,0.0,6.0,98,0.03,,,0.50,meteohub,2013-11-26 09:33:00,
2013-11-26 03:38:00,47.3,47.1,29.82,NNE,22,2.0,6.0,99,0.03,,,0.50,meteohub,2013-11-26 09:38:00,
2013-11-26 03:43:00,47.5,47.3,29.83,NE,34,2.0,5.0,99,0.02,,,0.50,meteohub,2013-11-26 09:43:00,
2013-11-26 03:48:00,47.5,47.3,29.84,West,268,3.0,5.0,99,0.02,,,0.50,meteohub,2013-11-26 09:48:00,
2013-11-26 03:53:00,47.5,46.9,29.86,West,263,3.0,6.0,98,0.01,,,0.50,meteohub,2013-11-26 09:53:00,
2013-11-26 03:58:00,47.5,46.9,29.86,West,271,4.0,6.0,98,0.03,,,0.52,meteohub,2013-11-26 09:58:00,
2013-11-26 04:03:00,47.5,46.9,29.85,West,262,3.0,7.0,98,0.04,,,0.53,meteohub,2013-11-26 10:03:00,
2013-11-26 04:08:00,47.5,46.9,29.85,West,262,3.0,7.0,98,0.05,,,0.54,meteohub,2013-11-26 10:08:00,
2013-11-26 04:13:00,47.5,46.9,29.84,West,262,2.0,7.0,98,0.05,,,0.54,meteohub,2013-11-26 10:13:00,
2013-11-26 04:18:00,47.5,46.9,29.85,West,281,3.0,6.0,98,0.06,,,0.56,meteohub,2013-11-26 10:18:00,
2013-11-26 04:23:00,47.5,46.9,29.86,West,274,2.0,6.0,98,0.06,,,0.56,meteohub,2013-11-26 10:23:00,
2013-11-26 04:28:00,47.5,46.9,29.86,West,276,3.0,7.0,98,0.07,,,0.57,meteohub,2013-11-26 10:28:00,
2013-11-26 04:33:00,47.5,46.9,29.86,West,277,4.0,11.0,98,0.07,,,0.57,meteohub,2013-11-26 10:33:00,
2013-11-26 04:38:00,47.1,46.6,29.87,West,279,7.0,11.0,98,0.07,,,0.57,meteohub,2013-11-26 10:38:00,
2013-11-26 04:43:00,46.2,45.7,29.87,WNW,302,6.0,12.0,98,0.07,,,0.57,meteohub,2013-11-26 10:43:00,
2013-11-26 04:48:00,45.3,44.6,29.88,WNW,288,13.0,15.0,97,0.08,,,0.58,meteohub,2013-11-26 10:48:00,
2013-11-26 04:53:00,44.8,44.1,29.88,WNW,290,6.0,15.0,97,0.07,,,0.58,meteohub,2013-11-26 10:53:00,
2013-11-26 04:58:00,44.2,43.5,29.87,West,277,8.0,15.0,97,0.06,,,0.58,meteohub,2013-11-26 10:58:00,
2013-11-26 05:03:00,43.9,43.3,29.87,WNW,298,9.0,17.0,98,0.05,,,0.58,meteohub,2013-11-26 11:03:00,
2013-11-26 05:08:00,43.9,43.3,29.87,WSW,254,6.0,17.0,98,0.04,,,0.58,meteohub,2013-11-26 11:08:00,
2013-11-26 05:13:00,43.7,43.2,29.87,WNW,297,11.0,17.0,98,0.03,,,0.58,meteohub,2013-11-26 11:13:00,
2013-11-26 05:18:00,43.5,43.0,29.87,NW,312,7.0,15.0,98,0.02,,,0.58,meteohub,2013-11-26 11:18:00,
2013-11-26 05:24:00,43.5,43.0,29.87,NNW,340,12.0,15.0,98,0.01,,,0.58,meteohub,2013-11-26 11:24:00,
2013-11-26 05:29:00,43.3,42.8,29.88,NW,306,7.0,15.0,98,0.01,,,0.58,meteohub,2013-11-26 11:29:00,
2013-11-26 05:34:00,43.3,42.8,29.89,NW,306,15.0,15.0,98,0.01,,,0.58,meteohub,2013-11-26 11:34:00,
2013-11-26 05:39:00,43.2,42.6,29.89,NW,320,10.0,15.0,98,0.01,,,0.58,meteohub,2013-11-26 11:39:00,
2013-11-26 05:44:00,43.0,42.4,29.89,WNW,294,10.0,17.0,98,0.01,,,0.58,meteohub,2013-11-26 11:44:00,
2013-11-26 05:49:00,42.8,42.3,29.89,West,266,6.0,18.0,98,0.00,,,0.58,meteohub,2013-11-26 11:49:00,
2013-11-26 05:54:00,42.6,42.1,29.89,WNW,287,8.0,18.0,98,0.00,,,0.58,meteohub,2013-11-26 11:54:00,
2013-11-26 05:59:00,42.4,41.9,29.89,NW,305,11.0,18.0,98,0.00,,,0.58,meteohub,2013-11-26 11:59:00,
2013-11-26 06:04:00,42.3,41.7,29.90,NW,323,17.0,18.0,98,0.00,,,0.58,meteohub,2013-11-26 12:04:00,
2013-11-26 06:09:00,42.3,41.7,29.90,WNW,298,6.0,21.0,98,0.00,,,0.58,meteohub,2013-11-26 12:09:00,
2013-11-26 06:14:00,42.1,41.5,29.91,West,277,12.0,21.0,98,0.00,,,0.58,meteohub,2013-11-26 12:14:00,
2013-11-26 06:19:00,41.7,41.2,29.91,NW,304,14.0,21.0,98,0.00,,,0.58,meteohub,2013-11-26 12:19:00,
2013-11-26 06:24:00,41.7,41.2,29.92,WNW,295,13.0,20.0,98,0.00,,,0.58,meteohub,2013-11-26 12:24:00,
2013-11-26 06:29:00,41.5,41.0,29.93,WNW,299,11.0,20.0,98,0.00,,,0.58,meteohub,2013-11-26 12:29:00,
2013-11-26 06:34:00,41.5,41.4,29.94,WSW,237,11.0,24.0,99,0.00,,,0.58,meteohub,2013-11-26 12:34:00,
2013-11-26 06:39:00,41.5,41.4,29.94,WNW,288,7.0,24.0,99,0.00,,,0.58,meteohub,2013-11-26 12:39:00,
2013-11-26 06:44:00,41.4,41.2,29.94,NW,319,13.0,23.0,99,0.00,,,0.58,meteohub,2013-11-26 12:44:00,
2013-11-26 06:49:00,41.4,40.8,29.94,NW,310,13.0,24.0,98,0.00,,,0.58,meteohub,2013-11-26 12:49:00,
2013-11-26 06:54:00,41.4,40.8,29.96,West,277,16.0,25.0,98,0.00,,,0.58,meteohub,2013-11-26 12:54:00,
2013-11-26 06:59:00,41.4,40.6,29.97,WSW,253,10.0,27.0,97,0.00,,,0.58,meteohub,2013-11-26 12:59:00,
2013-11-26 07:04:00,41.4,40.6,29.99,WNW,286,6.0,27.0,97,0.00,,,0.58,meteohub,2013-11-26 13:04:00,
2013-11-26 07:09:00,41.4,40.6,30.00,NW,308,7.0,27.0,97,0.01,,,0.59,meteohub,2013-11-26 13:09:00,
2013-11-26 07:14:00,41.4,40.6,30.00,WNW,283,17.0,23.0,97,0.01,,,0.59,meteohub,2013-11-26 13:14:00,
2013-11-26 07:19:00,41.2,40.5,29.99,WNW,285,11.0,25.0,97,0.03,,,0.60,meteohub,2013-11-26 13:19:00,
2013-11-26 07:24:00,41.2,40.5,29.99,NW,310,8.0,25.0,97,0.03,,,0.61,meteohub,2013-11-26 13:24:00,
2013-11-26 07:30:00,41.2,40.1,29.99,West,278,13.0,25.0,96,0.03,,,0.61,meteohub,2013-11-26 13:30:00,
2013-11-26 07:35:00,41.2,40.1,29.98,WNW,301,12.0,19.0,96,0.04,,,0.62,meteohub,2013-11-26 13:35:00,
2013-11-26 07:40:00,41.2,40.1,29.97,NW,319,5.0,15.0,96,0.05,,,0.63,meteohub,2013-11-26 13:40:00,
2013-11-26 07:45:00,41.2,40.5,29.96,WNW,289,5.0,16.0,97,0.06,,,0.64,meteohub,2013-11-26 13:45:00,
2013-11-26 07:50:00,41.2,40.5,29.95,NW,309,7.0,16.0,97,0.06,,,0.64,meteohub,2013-11-26 13:50:00,
2013-11-26 07:55:00,41.2,40.5,29.95,NW,306,5.0,13.0,97,0.06,,,0.64,meteohub,2013-11-26 13:55:00,
2013-11-26 08:00:00,41.2,40.1,29.96,NW,306,11.0,18.0,96,0.07,,,0.65,meteohub,2013-11-26 14:00:00,
2013-11-26 08:05:00,41.2,40.5,29.95,NW,321,2.0,18.0,97,0.07,,,0.65,meteohub,2013-11-26 14:05:00,
2013-11-26 08:10:00,41.2,40.5,29.95,NW,309,10.0,18.0,97,0.06,,,0.65,meteohub,2013-11-26 14:10:00,
2013-11-26 08:15:00,41.2,40.5,29.96,NW,312,6.0,16.0,97,0.07,,,0.66,meteohub,2013-11-26 14:15:00,
2013-11-26 08:20:00,41.4,40.6,29.96,NW,306,12.0,16.0,97,0.05,,,0.66,meteohub,2013-11-26 14:20:00,
2013-11-26 08:25:00,41.4,40.6,29.96,NW,321,7.0,16.0,97,0.05,,,0.66,meteohub,2013-11-26 14:25:00,
2013-11-26 08:30:00,41.4,40.6,29.97,WNW,298,6.0,15.0,97,0.07,,,0.69,meteohub,2013-11-26 14:30:00,
2013-11-26 08:35:00,41.4,40.6,29.98,NNW,331,8.0,14.0,97,0.07,,,0.70,meteohub,2013-11-26 14:35:00,
2013-11-26 08:40:00,41.4,40.3,29.99,West,262,8.0,14.0,96,0.07,,,0.71,meteohub,2013-11-26 14:40:00,
2013-11-26 08:45:00,41.5,40.5,29.99,WNW,294,10.0,14.0,96,0.07,,,0.71,meteohub,2013-11-26 14:45:00,
2013-11-26 08:50:00,41.5,40.5,29.99,NNW,328,9.0,14.0,96,0.07,,,0.71,meteohub,2013-11-26 14:50:00,
2013-11-26 08:55:00,41.7,41.0,29.99,WNW,294,8.0,14.0,97,0.06,,,0.72,meteohub,2013-11-26 14:55:00,
2013-11-26 09:00:00,41.7,41.0,29.99,NW,306,6.0,15.0,97,0.07,,,0.72,meteohub,2013-11-26 15:00:00,
2013-11-26 09:05:00,41.9,41.2,29.98,NNW,328,11.0,16.0,97,0.07,,,0.72,meteohub,2013-11-26 15:05:00,
2013-11-26 09:10:00,42.1,41.4,29.97,WNW,302,5.0,16.0,97,0.06,,,0.73,meteohub,2013-11-26 15:10:00,
2013-11-26 09:15:00,42.1,41.4,29.97,NW,323,9.0,17.0,97,0.07,,,0.73,meteohub,2013-11-26 15:15:00,
2013-11-26 09:20:00,42.3,41.5,29.96,WNW,288,5.0,17.0,97,0.06,,,0.73,meteohub,2013-11-26 15:20:00,
2013-11-26 09:25:00,42.4,41.7,29.96,WNW,294,3.0,17.0,97,0.05,,,0.73,meteohub,2013-11-26 15:25:00,
2013-11-26 09:30:00,42.6,41.9,29.94,NW,319,3.0,17.0,97,0.04,,,0.73,meteohub,2013-11-26 15:30:00,
2013-11-26 09:35:00,42.8,42.1,29.94,NW,316,7.0,14.0,97,0.03,,,0.73,meteohub,2013-11-26 15:35:00,
2013-11-26 09:40:00,43.0,42.3,29.93,NNW,342,13.0,14.0,97,0.03,,,0.74,meteohub,2013-11-26 15:40:00,
2013-11-26 09:45:00,43.2,42.4,29.91,NW,326,5.0,18.0,97,0.03,,,0.74,meteohub,2013-11-26 15:45:00,
2013-11-26 09:50:00,43.3,42.6,29.91,North,355,4.0,13.0,97,0.02,,,0.74,meteohub,2013-11-26 15:50:00,
2013-11-26 09:55:00,43.3,42.6,29.91,North,355,4.0,15.0,97,0.02,,,0.74,meteohub,2013-11-26 15:55:00,
2013-11-26 10:00:00,43.3,42.6,29.92,NNW,333,3.0,15.0,97,0.02,,,0.74,meteohub,2013-11-26 16:00:00,
2013-11-26 10:05:00,43.5,42.8,29.94,WNW,284,7.0,15.0,97,0.01,,,0.74,meteohub,2013-11-26 16:05:00,
2013-11-26 10:10:00,43.7,42.6,29.93,NNW,334,6.0,15.0,96,0.01,,,0.74,meteohub,2013-11-26 16:10:00,
2013-11-26 10:15:00,43.9,42.8,29.93,West,262,7.0,14.0,96,0.01,,,0.74,meteohub,2013-11-26 16:15:00,
2013-11-26 10:20:00,44.1,43.3,29.92,NNE,33,4.0,13.0,97,0.01,,,0.74,meteohub,2013-11-26 16:20:00,
2013-11-26 10:25:00,44.2,43.2,29.92,NW,313,6.0,13.0,96,0.01,,,0.74,meteohub,2013-11-26 16:25:00,
2013-11-26 10:30:00,44.2,43.2,29.92,NW,325,0.0,11.0,96,0.01,,,0.74,meteohub,2013-11-26 16:30:00,
2013-11-26 10:35:00,44.2,43.2,29.93,NW,320,5.0,11.0,96,0.00,,,0.74,meteohub,2013-11-26 16:35:00,
2013-11-26 10:40:00,44.4,43.3,29.92,WNW,300,6.0,11.0,96,0.00,,,0.74,meteohub,2013-11-26 16:40:00,
2013-11-26 10:45:00,44.2,43.0,29.92,NW,306,4.0,11.0,95,0.00,,,0.74,meteohub,2013-11-26 16:45:00,
2013-11-26 10:50:00,44.2,43.2,29.91,WNW,299,5.0,11.0,96,0.00,,,0.74,meteohub,2013-11-26 16:50:00,
2013-11-26 10:55:00,44.4,43.3,29.91,NW,311,3.0,11.0,96,0.00,,,0.74,meteohub,2013-11-26 16:55:00,
2013-11-26 11:00:00,44.4,43.3,29.92,NW,311,5.0,10.0,96,0.00,,,0.74,meteohub,2013-11-26 17:00:00,
2013-11-26 11:05:00,44.2,43.0,29.93,NNW,333,6.0,10.0,95,0.00,,,0.74,meteohub,2013-11-26 17:05:00,
2013-11-26 11:10:00,44.2,43.0,29.94,WNW,300,4.0,10.0,95,0.00,,,0.74,meteohub,2013-11-26 17:10:00,
2013-11-26 11:15:00,44.2,43.0,29.92,NW,321,9.0,11.0,95,0.00,,,0.74,meteohub,2013-11-26 17:15:00,
2013-11-26 11:20:00,44.2,43.0,29.92,NW,305,8.0,12.0,95,0.00,,,0.74,meteohub,2013-11-26 17:20:00,
2013-11-26 11:25:00,44.2,43.0,29.91,NW,317,5.0,12.0,95,0.00,,,0.74,meteohub,2013-11-26 17:25:00,
2013-11-26 11:30:00,44.2,43.0,29.92,WNW,294,8.0,12.0,95,0.00,,,0.74,meteohub,2013-11-26 17:30:00,
2013-11-26 11:35:00,44.2,43.0,29.92,WNW,295,5.0,11.0,95,0.00,,,0.74,meteohub,2013-11-26 17:35:00,
2013-11-26 11:40:00,44.2,43.0,29.91,NW,314,6.0,11.0,95,0.00,,,0.74,meteohub,2013-11-26 17:40:00,
2013-11-26 11:45:00,44.4,43.2,29.91,NW,319,2.0,10.0,95,0.00,,,0.74,meteohub,2013-11-26 17:45:00,
2013-11-26 11:50:00,44.4,43.2,29.91,WNW,298,3.0,9.0,95,0.00,,,0.74,meteohub,2013-11-26 17:50:00,
2013-11-26 11:56:00,44.6,43.3,29.92,WNW,296,7.0,9.0,95,0.00,,,0.74,meteohub,2013-11-26 17:56:00,
2013-11-26 12:01:00,44.6,43.3,29.92,NNW,329,5.0,12.0,95,0.00,,,0.74,meteohub,2013-11-26 18:01:00,
2013-11-26 12:06:00,44.6,43.3,29.91,NW,309,6.0,12.0,95,0.00,,,0.74,meteohub,2013-11-26 18:06:00,
2013-11-26 12:11:00,44.8,43.5,29.91,NW,310,7.0,12.0,95,0.00,,,0.74,meteohub,2013-11-26 18:11:00,
2013-11-26 12:16:00,44.6,43.3,29.91,NW,315,11.0,11.0,95,0.00,,,0.74,meteohub,2013-11-26 18:16:00,
2013-11-26 12:21:00,44.6,43.3,29.90,North,355,5.0,11.0,95,0.00,,,0.74,meteohub,2013-11-26 18:21:00,
2013-11-26 12:26:00,44.4,43.2,29.90,WNW,294,8.0,11.0,95,0.00,,,0.74,meteohub,2013-11-26 18:26:00,
2013-11-26 12:31:00,44.4,43.2,29.91,WNW,286,10.0,11.0,95,0.00,,,0.74,meteohub,2013-11-26 18:31:00,
2013-11-26 12:36:00,44.4,43.2,29.91,West,273,8.0,10.0,95,0.00,,,0.74,meteohub,2013-11-26 18:36:00,
2013-11-26 12:41:00,44.2,43.0,29.92,NW,325,8.0,11.0,95,0.00,,,0.74,meteohub,2013-11-26 18:41:00,
2013-11-26 12:46:00,44.2,43.0,29.91,WNW,283,8.0,11.0,95,0.00,,,0.74,meteohub,2013-11-26 18:46:00,
2013-11-26 12:51:00,44.2,43.0,29.89,WNW,289,6.0,11.0,95,0.00,,,0.74,meteohub,2013-11-26 18:51:00,
2013-11-26 12:56:00,44.4,43.3,29.90,WNW,286,3.0,11.0,96,0.00,,,0.74,meteohub,2013-11-26 18:56:00,
2013-11-26 13:01:00,44.2,43.0,29.90,West,277,9.0,11.0,95,0.00,,,0.74,meteohub,2013-11-26 19:01:00,
2013-11-26 13:06:00,44.1,42.8,29.92,WNW,289,5.0,14.0,95,0.00,,,0.74,meteohub,2013-11-26 19:06:00,
2013-11-26 13:11:00,44.1,42.8,29.91,NW,317,8.0,14.0,95,0.00,,,0.74,meteohub,2013-11-26 19:11:00,
2013-11-26 13:16:00,43.9,42.6,29.91,West,274,14.0,14.0,95,0.00,,,0.74,meteohub,2013-11-26 19:16:00,
2013-11-26 13:21:00,43.3,42.1,29.91,WNW,303,6.0,17.0,95,0.00,,,0.74,meteohub,2013-11-26 19:21:00,
2013-11-26 13:26:00,43.5,42.3,29.91,WNW,292,7.0,17.0,95,0.00,,,0.74,meteohub,2013-11-26 19:26:00,
2013-11-26 13:31:00,43.3,42.1,29.91,WNW,289,13.0,17.0,95,0.00,,,0.74,meteohub,2013-11-26 19:31:00,
2013-11-26 13:36:00,43.3,42.1,29.91,WNW,289,7.0,17.0,95,0.00,,,0.74,meteohub,2013-11-26 19:36:00,
2013-11-26 13:41:00,43.3,42.3,29.91,WNW,302,8.0,17.0,96,0.00,,,0.74,meteohub,2013-11-26 19:41:00,
2013-11-26 13:46:00,43.3,42.1,29.91,North,355,5.0,17.0,95,0.00,,,0.74,meteohub,2013-11-26 19:46:00,
2013-11-26 13:51:00,43.3,42.1,29.91,NW,315,6.0,17.0,95,0.00,,,0.74,meteohub,2013-11-26 19:51:00,
2013-11-26 13:56:00,43.3,42.1,29.91,NW,319,9.0,17.0,95,0.00,,,0.74,meteohub,2013-11-26 19:56:00,
2013-11-26 14:01:00,43.3,42.1,29.91,NW,309,10.0,13.0,95,0.00,,,0.74,meteohub,2013-11-26 20:01:00,
2013-11-26 14:06:00,43.3,42.1,29.91,WNW,299,7.0,13.0,95,0.00,,,0.74,meteohub,2013-11-26 20:06:00,
2013-11-26 14:11:00,43.3,42.1,29.91,WNW,301,4.0,13.0,95,0.00,,,0.74,meteohub,2013-11-26 20:11:00,
2013-11-26 14:16:00,43.3,42.1,29.91,NW,310,13.0,14.0,95,0.00,,,0.74,meteohub,2013-11-26 20:16:00,
2013-11-26 14:21:00,43.3,42.1,29.91,NW,311,10.0,17.0,95,0.00,,,0.74,meteohub,2013-11-26 20:21:00,
2013-11-26 14:26:00,43.2,41.9,29.92,West,276,7.0,17.0,95,0.00,,,0.74,meteohub,2013-11-26 20:26:00,
2013-11-26 14:31:00,43.2,41.9,29.92,NW,321,10.0,17.0,95,0.00,,,0.74,meteohub,2013-11-26 20:31:00,
2013-11-26 14:36:00,43.2,41.9,29.92,WNW,292,5.0,15.0,95,0.00,,,0.74,meteohub,2013-11-26 20:36:00,
2013-11-26 14:41:00,43.2,41.9,29.92,NW,319,10.0,15.0,95,0.00,,,0.74,meteohub,2013-11-26 20:41:00,
2013-11-26 14:46:00,43.2,41.9,29.93,NW,309,6.0,15.0,95,0.00,,,0.74,meteohub,2013-11-26 20:46:00,
2013-11-26 14:51:00,43.2,41.9,29.93,NW,315,7.0,14.0,95,0.00,,,0.74,meteohub,2013-11-26 20:51:00,
2013-11-26 14:56:00,43.0,41.7,29.94,WNW,298,9.0,18.0,95,0.00,,,0.74,meteohub,2013-11-26 20:56:00,
2013-11-26 15:01:00,42.8,41.5,29.94,NW,309,13.0,18.0,95,0.00,,,0.74,meteohub,2013-11-26 21:01:00,
2013-11-26 15:06:00,42.6,41.4,29.94,WNW,300,10.0,15.0,95,0.00,,,0.74,meteohub,2013-11-26 21:06:00,
2013-11-26 15:11:00,43.0,41.7,29.94,NW,325,8.0,20.0,95,0.00,,,0.74,meteohub,2013-11-26 21:11:00,
2013-11-26 15:16:00,43.0,41.7,29.95,WNW,285,8.0,20.0,95,0.00,,,0.74,meteohub,2013-11-26 21:16:00,
2013-11-26 15:21:00,42.8,41.5,29.95,WNW,294,10.0,17.0,95,0.00,,,0.74,meteohub,2013-11-26 21:21:00,
2013-11-26 15:26:00,42.8,41.5,29.95,West,276,4.0,17.0,95,0.00,,,0.74,meteohub,2013-11-26 21:26:00,
2013-11-26 15:31:00,42.8,41.5,29.95,WNW,294,12.0,17.0,95,0.00,,,0.74,meteohub,2013-11-26 21:31:00,
2013-11-26 15:36:00,42.8,41.5,29.96,WNW,293,9.0,16.0,95,0.00,,,0.74,meteohub,2013-11-26 21:36:00,
2013-11-26 15:41:00,42.6,41.4,29.96,West,277,4.0,16.0,95,0.00,,,0.74,meteohub,2013-11-26 21:41:00,
2013-11-26 15:46:00,42.8,41.5,29.96,NW,314,10.0,15.0,95,0.00,,,0.74,meteohub,2013-11-26 21:46:00,
2013-11-26 15:51:00,42.6,41.4,29.96,NW,323,7.0,14.0,95,0.00,,,0.74,meteohub,2013-11-26 21:51:00,
2013-11-26 15:56:00,42.4,41.2,29.97,NW,310,7.0,14.0,95,0.00,,,0.74,meteohub,2013-11-26 21:56:00,
2013-11-26 16:02:00,42.4,41.4,29.96,North,5,6.0,14.0,96,0.00,,,0.74,meteohub,2013-11-26 22:02:00,
2013-11-26 16:07:00,42.3,41.2,29.96,NNW,331,3.0,15.0,96,0.01,,,0.75,meteohub,2013-11-26 22:07:00,
2013-11-26 16:12:00,42.3,41.2,29.96,WNW,298,3.0,15.0,96,0.01,,,0.75,meteohub,2013-11-26 22:12:00,
2013-11-26 16:17:00,42.3,41.2,29.96,NNW,343,4.0,15.0,96,0.01,,,0.75,meteohub,2013-11-26 22:17:00,
2013-11-26 16:22:00,42.3,41.2,29.96,NNW,333,4.0,13.0,96,0.01,,,0.75,meteohub,2013-11-26 22:22:00,
2013-11-26 16:27:00,42.3,41.2,29.97,West,279,7.0,12.0,96,0.01,,,0.75,meteohub,2013-11-26 22:27:00,
2013-11-26 16:32:00,42.3,41.5,29.96,NW,318,4.0,11.0,97,0.02,,,0.76,meteohub,2013-11-26 22:32:00,
2013-11-26 16:37:00,42.3,41.2,29.97,NNW,327,5.0,11.0,96,0.02,,,0.76,meteohub,2013-11-26 22:37:00,
2013-11-26 16:42:00,42.3,41.2,29.97,NNW,336,3.0,10.0,96,0.02,,,0.76,meteohub,2013-11-26 22:42:00,
2013-11-26 16:47:00,42.3,41.5,29.97,WNW,291,1.0,10.0,97,0.02,,,0.76,meteohub,2013-11-26 22:47:00,
2013-11-26 16:52:00,42.3,41.5,29.97,NW,307,4.0,10.0,97,0.02,,,0.76,meteohub,2013-11-26 22:52:00,
2013-11-26 16:57:00,42.1,41.4,29.97,WNW,297,4.0,10.0,97,0.03,,,0.77,meteohub,2013-11-26 22:57:00,
2013-11-26 17:02:00,42.1,41.4,29.97,West,265,2.0,10.0,97,0.03,,,0.77,meteohub,2013-11-26 23:02:00,
2013-11-26 17:07:00,42.1,41.0,29.97,WNW,299,2.0,11.0,96,0.02,,,0.77,meteohub,2013-11-26 23:07:00,
2013-11-26 17:12:00,42.1,41.4,29.98,NW,307,7.0,11.0,97,0.02,,,0.77,meteohub,2013-11-26 23:12:00,
2013-11-26 17:17:00,42.3,41.5,29.98,WNW,296,5.0,11.0,97,0.02,,,0.77,meteohub,2013-11-26 23:17:00,
2013-11-26 17:22:00,42.3,41.5,29.98,NW,307,9.0,9.0,97,0.02,,,0.77,meteohub,2013-11-26 23:22:00,
2013-11-26 17:27:00,42.1,41.4,29.98,North,5,7.0,10.0,97,0.01,,,0.77,meteohub,2013-11-26 23:27:00,
2013-11-26 17:32:00,42.3,41.5,29.98,NNW,345,5.0,10.0,97,0.01,,,0.77,meteohub,2013-11-26 23:32:00,
2013-11-26 17:36:00,42.1,41.0,29.99,WNW,294,6.0,10.0,96,0.01,,,0.77,meteohub,2013-11-26 23:36:00,
2013-11-26 17:42:00,42.1,41.0,29.99,NW,304,8.0,10.0,96,0.01,,,0.77,meteohub,2013-11-26 23:42:00,
2013-11-26 17:47:00,42.1,41.0,29.99,WNW,288,5.0,10.0,96,0.02,,,0.78,meteohub,2013-11-26 23:47:00,
2013-11-26 17:52:00,42.1,41.0,30.00,North,355,5.0,13.0,96,0.02,,,0.78,meteohub,2013-11-26 23:52:00,
2013-11-26 17:57:00,42.1,41.0,30.00,NNW,336,8.0,13.0,96,0.01,,,0.78,meteohub,2013-11-26 23:57:00,
2013-11-26 18:02:00,42.1,41.0,30.01,North,10,5.0,13.0,96,0.01,,,0.78,meteohub,2013-11-27 00:02:00,
2013-11-26 18:07:00,42.1,41.0,30.01,North,11,5.0,13.0,96,0.01,,,0.78,meteohub,2013-11-27 00:07:00,
2013-11-26 18:12:00,42.1,41.0,30.01,NW,315,9.0,13.0,96,0.01,,,0.78,meteohub,2013-11-27 00:12:00,
2013-11-26 18:17:00,42.1,41.0,30.01,NNW,329,7.0,13.0,96,0.01,,,0.78,meteohub,2013-11-27 00:17:00,
2013-11-26 18:22:00,42.1,41.0,30.02,NW,312,4.0,14.0,96,0.01,,,0.78,meteohub,2013-11-27 00:22:00,
2013-11-26 18:27:00,42.1,41.0,30.02,NW,319,6.0,14.0,96,0.01,,,0.78,meteohub,2013-11-27 00:27:00,
2013-11-26 18:32:00,41.9,40.8,30.02,NW,325,4.0,14.0,96,0.01,,,0.78,meteohub,2013-11-27 00:32:00,
2013-11-26 18:37:00,41.9,40.6,30.02,NW,319,3.0,15.0,95,0.01,,,0.78,meteohub,2013-11-27 00:37:00,
2013-11-26 18:42:00,41.9,40.6,30.03,West,275,5.0,15.0,95,0.01,,,0.78,meteohub,2013-11-27 00:42:00,
2013-11-26 18:47:00,41.9,40.8,30.03,WNW,295,10.0,15.0,96,0.00,,,0.78,meteohub,2013-11-27 00:47:00,
2013-11-26 18:52:00,41.9,40.6,30.04,NW,319,10.0,12.0,95,0.00,,,0.78,meteohub,2013-11-27 00:52:00,
2013-11-26 18:57:00,41.9,40.6,30.04,WNW,297,9.0,13.0,95,0.00,,,0.78,meteohub,2013-11-27 00:57:00,
2013-11-26 19:02:00,42.1,40.8,30.04,NW,310,7.0,13.0,95,0.00,,,0.78,meteohub,2013-11-27 01:02:00,
2013-11-26 19:07:00,42.1,40.8,30.04,NW,312,9.0,13.0,95,0.00,,,0.78,meteohub,2013-11-27 01:07:00,
2013-11-26 19:12:00,42.1,40.8,30.05,NW,314,3.0,18.0,95,0.00,,,0.78,meteohub,2013-11-27 01:12:00,
2013-11-26 19:17:00,42.1,40.8,30.04,WNW,295,7.0,18.0,95,0.00,,,0.78,meteohub,2013-11-27 01:17:00,
2013-11-26 19:22:00,41.9,40.6,30.05,NW,325,7.0,18.0,95,0.00,,,0.78,meteohub,2013-11-27 01:22:00,
2013-11-26 19:27:00,41.9,40.6,30.05,NNW,348,7.0,13.0,95,0.00,,,0.78,meteohub,2013-11-27 01:27:00,
2013-11-26 19:32:00,41.7,40.5,30.05,NNW,346,5.0,14.0,95,0.00,,,0.78,meteohub,2013-11-27 01:32:00,
2013-11-26 19:37:00,41.7,40.5,30.06,NW,326,5.0,14.0,95,0.00,,,0.78,meteohub,2013-11-27 01:37:00,
2013-11-26 19:42:00,41.7,40.5,30.06,West,280,5.0,13.0,95,0.00,,,0.78,meteohub,2013-11-27 01:42:00,
2013-11-26 19:47:00,41.7,40.5,30.06,WNW,303,4.0,13.0,95,0.00,,,0.78,meteohub,2013-11-27 01:47:00,
2013-11-26 19:52:00,41.7,40.5,30.06,NW,305,5.0,13.0,95,0.00,,,0.78,meteohub,2013-11-27 01:52:00,
2013-11-26 19:57:00,41.7,40.5,30.06,NW,309,12.0,12.0,95,0.00,,,0.78,meteohub,2013-11-27 01:57:00,
2013-11-26 20:02:00,41.5,40.3,30.06,WNW,302,6.0,12.0,95,0.00,,,0.78,meteohub,2013-11-27 02:02:00,
2013-11-26 20:07:00,41.5,40.3,30.06,WNW,290,8.0,13.0,95,0.01,,,0.79,meteohub,2013-11-27 02:07:00,
2013-11-26 20:12:00,41.4,40.3,30.07,NW,319,8.0,13.0,96,0.01,,,0.79,meteohub,2013-11-27 02:12:00,
2013-11-26 20:17:00,41.4,40.3,30.07,North,5,6.0,12.0,96,0.01,,,0.79,meteohub,2013-11-27 02:17:00,
2013-11-26 20:22:00,41.4,40.3,30.07,NW,322,6.0,14.0,96,0.03,,,0.81,meteohub,2013-11-27 02:22:00,
2013-11-26 20:27:00,41.2,40.1,30.08,WNW,296,11.0,14.0,96,0.03,,,0.81,meteohub,2013-11-27 02:27:00,
2013-11-26 20:32:00,41.2,40.1,30.08,NW,310,5.0,14.0,96,0.05,,,0.83,meteohub,2013-11-27 02:32:00,
2013-11-26 20:37:00,41.2,40.1,30.08,WNW,291,8.0,14.0,96,0.07,,,0.85,meteohub,2013-11-27 02:37:00,
2013-11-26 20:42:00,41.0,39.7,30.09,NNW,328,3.0,16.0,95,0.08,,,0.86,meteohub,2013-11-27 02:42:00,
2013-11-26 20:47:00,41.0,39.9,30.09,WNW,287,6.0,16.0,96,0.11,,,0.89,meteohub,2013-11-27 02:47:00,
2013-11-26 20:52:00,41.0,39.7,30.09,NW,311,11.0,16.0,95,0.11,,,0.89,meteohub,2013-11-27 02:52:00,
2013-11-26 20:57:00,41.0,39.7,30.09,WNW,301,8.0,14.0,95,0.12,,,0.90,meteohub,2013-11-27 02:57:00,
2013-11-26 21:02:00,41.2,39.9,30.09,NNW,333,5.0,14.0,95,0.11,,,0.90,meteohub,2013-11-27 03:02:00,
2013-11-26 21:07:00,41.2,39.9,30.09,WNW,292,4.0,14.0,95,0.11,,,0.90,meteohub,2013-11-27 03:07:00,
2013-11-26 21:12:00,41.2,39.9,30.10,NW,313,9.0,14.0,95,0.11,,,0.90,meteohub,2013-11-27 03:12:00,
2013-11-26 21:17:00,41.2,39.9,30.10,WNW,300,4.0,14.0,95,0.10,,,0.90,meteohub,2013-11-27 03:17:00,
2013-11-26 21:22:00,41.2,39.6,30.10,WNW,284,6.0,14.0,94,0.09,,,0.90,meteohub,2013-11-27 03:22:00,
2013-11-26 21:27:00,41.2,39.6,30.11,NW,313,7.0,14.0,94,0.08,,,0.90,meteohub,2013-11-27 03:27:00,
2013-11-26 21:32:00,41.2,39.6,30.11,NW,322,8.0,15.0,94,0.06,,,0.90,meteohub,2013-11-27 03:32:00,
2013-11-26 21:37:00,41.2,39.6,30.11,WNW,289,8.0,16.0,94,0.05,,,0.90,meteohub,2013-11-27 03:37:00,
2013-11-26 21:42:00,41.2,39.6,30.11,NW,309,5.0,16.0,94,0.02,,,0.90,meteohub,2013-11-27 03:42:00,
2013-11-26 21:47:00,41.2,39.6,30.12,NW,309,12.0,16.0,94,0.01,,,0.90,meteohub,2013-11-27 03:47:00,
2013-11-26 21:52:00,41.2,39.6,30.12,NW,326,5.0,16.0,94,0.01,,,0.90,meteohub,2013-11-27 03:52:00,
2013-11-26 21:57:00,41.2,39.6,30.12,West,279,6.0,16.0,94,0.00,,,0.90,meteohub,2013-11-27 03:57:00,
2013-11-26 22:02:00,41.2,39.6,30.12,NW,317,11.0,16.0,94,0.00,,,0.90,meteohub,2013-11-27 04:02:00,
2013-11-26 22:07:00,41.2,39.6,30.12,WNW,288,3.0,19.0,94,0.00,,,0.90,meteohub,2013-11-27 04:07:00,
2013-11-26 22:12:00,41.2,39.6,30.12,NNW,333,5.0,19.0,94,0.00,,,0.90,meteohub,2013-11-27 04:12:00,
2013-11-26 22:17:00,41.2,39.6,30.13,WNW,297,7.0,19.0,94,0.00,,,0.90,meteohub,2013-11-27 04:17:00,
2013-11-26 22:22:00,41.2,39.6,30.13,NW,305,11.0,16.0,94,0.00,,,0.90,meteohub,2013-11-27 04:22:00,
2013-11-26 22:27:00,41.0,39.4,30.13,NNW,338,9.0,14.0,94,0.00,,,0.90,meteohub,2013-11-27 04:27:00,
2013-11-26 22:32:00,41.0,39.4,30.13,NW,309,6.0,14.0,94,0.00,,,0.90,meteohub,2013-11-27 04:32:00,
2013-11-26 22:37:00,40.8,39.2,30.13,NW,322,7.0,16.0,94,0.00,,,0.90,meteohub,2013-11-27 04:37:00,
2013-11-26 22:42:00,40.8,39.2,30.13,NNW,331,8.0,16.0,94,0.00,,,0.90,meteohub,2013-11-27 04:42:00,
2013-11-26 22:47:00,40.6,39.0,30.14,NNW,346,6.0,13.0,94,0.00,,,0.90,meteohub,2013-11-27 04:47:00,
2013-11-26 22:52:00,40.6,39.0,30.13,NW,306,4.0,15.0,94,0.00,,,0.90,meteohub,2013-11-27 04:52:00,
2013-11-26 22:57:00,40.6,38.8,30.14,WNW,294,6.0,15.0,93,0.00,,,0.90,meteohub,2013-11-27 04:57:00,
2013-11-26 23:01:00,40.6,38.8,30.14,WNW,295,4.0,15.0,93,0.00,,,0.90,meteohub,2013-11-27 05:01:00,
2013-11-26 23:02:00,40.5,38.7,30.14,West,280,6.0,15.0,93,0.00,,,0.90,meteohub,2013-11-27 05:02:00,
2013-11-26 23:07:00,40.5,38.8,30.14,NW,309,5.0,15.0,94,0.00,,,0.90,meteohub,2013-11-27 05:07:00,
2013-11-26 23:12:00,40.5,38.8,30.14,WNW,293,6.0,11.0,94,0.00,,,0.90,meteohub,2013-11-27 05:12:00,
2013-11-26 23:17:00,40.3,38.7,30.14,NW,304,4.0,11.0,94,0.00,,,0.90,meteohub,2013-11-27 05:17:00,
2013-11-26 23:22:00,40.3,38.7,30.13,WNW,290,4.0,11.0,94,0.00,,,0.90,meteohub,2013-11-27 05:22:00,
2013-11-26 23:27:00,40.3,38.7,30.13,WNW,298,8.0,10.0,94,0.00,,,0.90,meteohub,2013-11-27 05:27:00,
2013-11-26 23:32:00,40.5,38.8,30.14,NW,323,4.0,12.0,94,0.00,,,0.90,meteohub,2013-11-27 05:32:00,
2013-11-26 23:37:00,40.5,38.8,30.14,WNW,298,8.0,12.0,94,0.00,,,0.90,meteohub,2013-11-27 05:37:00,
2013-11-26 23:42:00,40.6,38.8,30.14,NW,311,5.0,13.0,93,0.00,,,0.90,meteohub,2013-11-27 05:42:00,
2013-11-26 23:47:00,40.6,38.8,30.14,WNW,300,5.0,13.0,93,0.00,,,0.90,meteohub,2013-11-27 05:47:00,
2013-11-26 23:52:00,40.6,38.8,30.14,WNW,300,7.0,13.0,93,0.00,,,0.90,meteohub,2013-11-27 05:52:00,
2013-11-26 23:57:00,40.8,39.0,30.14,WNW,286,5.0,12.0,93,0.00,,,0.90,meteohub,2013-11-27 05:57:00,